Preston, MN

7:59 AM CST on November 24, 2017 (GMT -0600)
Preston

Weather History for KFKA - December, 2013

Change the Weather History Date:

Tuesday, December 24, 2013

  Actual Average (KRST) Record (KRST)
Temperature  
Mean Temperature -4 °F -  
Max Temperature 6 °F 20 °F 41 °F (1953)
Min Temperature -13 °F 5 °F -26 °F (1983)
Degree Days  
Heating Degree Days 68    
Moisture  
Dew Point -8 °F    
Average Humidity 77    
Maximum Humidity 85    
Minimum Humidity 60    
Precipitation  
Precipitation 0.00 in - - ()
Sea Level Pressure  
Sea Level Pressure 30.33 in    
Wind  
Wind Speed 8 mph (South)    
Max Wind Speed 17 mph    
Max Gust Speed 20 mph    
Visibility 6 miles    
Events Snow    
Averages and records for this station are not official NWS values.
T = Trace of Precipitation, MM = Missing Value Source: NWS Daily Summary

Daily Weather History Graph

Daily Weather History Graph

Search for Another Location

Airport or City:

Trip Planner

Search our weather history database for the weather conditions in past years. The results will help you decide how hot, cold, wet, or windy it might be!

Date:

Astronomy

Dec. 24, 2013 Rise Set
Actual Time 7:40 AM CST 4:36 PM CST
Civil Twilight 7:07 AM CST 5:09 PM CST
Nautical Twilight 6:31 AM CST 5:45 PM CST
Astronomical Twilight 5:56 AM CST 6:20 PM CST
Moon 11:58 PM CST 11:22 AM CST
Length of Visible Light 10h 01m
Length of Day
8h 55m
Waning Gibbous, 58% of the Moon is Illuminated
Dec 24
Waning Gibbous
Dec 25
Last Quarter
Jan 1
New
Jan 7
First Quarter
Jan 15
Full

Hourly Weather History & Observations

Time (CST) Temp. Windchill Dew Point Humidity Pressure Visibility Wind Dir Wind Speed Gust Speed Precip Events Conditions
12:12 AM -9.0 °F -23.8 °F -14.1 °F 79% 30.43 in - West 6.9 mph - N/A   Clear
12:33 AM -9.4 °F -24.3 °F -14.4 °F 78% 30.43 in - WNW 6.9 mph - N/A   Clear
12:52 AM -9.4 °F -22.7 °F -14.4 °F 78% 30.41 in - NW 5.8 mph - N/A   Clear
1:13 AM -9.4 °F -24.3 °F -14.3 °F 79% 30.42 in - West 6.9 mph - N/A   Unknown
1:33 AM -9.4 °F -22.7 °F -14.4 °F 78% 30.43 in - WNW 5.8 mph - N/A   Clear
1:52 AM -9.9 °F -21.5 °F -14.8 °F 79% 30.42 in - WNW 4.6 mph - N/A   Clear
2:13 AM -9.2 °F -20.7 °F -14.1 °F 79% 30.42 in - West 4.6 mph - N/A   Clear
2:32 AM -9.6 °F -25.8 °F -14.4 °F 79% 30.44 in - West 8.1 mph - N/A   Clear
2:53 AM -9.9 °F -23.4 °F -14.8 °F 79% 30.43 in - West 5.8 mph - N/A   Clear
3:13 AM -10.5 °F -19.8 °F -15.2 °F 80% 30.42 in - WNW 3.5 mph - N/A   Unknown
3:33 AM -10.7 °F -25.8 °F -15.7 °F 78% 30.43 in - West 6.9 mph - N/A   Clear
3:53 AM -9.6 °F -18.8 °F -14.4 °F 79% 30.42 in - West 3.5 mph - N/A   Clear
4:12 AM -9.4 °F -18.6 °F -14.3 °F 79% 30.41 in - West 3.5 mph - N/A   Clear
4:32 AM -10.3 °F -19.6 °F -15.0 °F 80% 30.41 in - SW 3.5 mph - N/A   Clear
4:53 AM -11.2 °F -24.8 °F -15.9 °F 80% 30.41 in - SW 5.8 mph - N/A   Clear
5:12 AM -11.2 °F -23.0 °F -15.9 °F 80% 30.41 in - SSW 4.6 mph - N/A   Clear
5:33 AM -11.6 °F -23.4 °F -16.1 °F 80% 30.40 in - SW 4.6 mph - N/A   Unknown
5:53 AM -11.6 °F -23.4 °F -16.4 °F 79% 30.41 in - SSW 4.6 mph - N/A   Unknown
6:12 AM -12.1 °F -24.0 °F -17.0 °F 79% 30.41 in - SW 4.6 mph - N/A   Clear
6:33 AM -11.6 °F -25.3 °F -16.2 °F 80% 30.40 in - SSW 5.8 mph - N/A   Unknown
6:52 AM -13.0 °F -22.7 °F -18.0 °F 78% 30.41 in - SSE 3.5 mph - N/A   Clear
7:13 AM -13.0 °F -25.1 °F -17.9 °F 79% 30.41 in - South 4.6 mph - N/A   Clear
7:33 AM -12.1 °F -27.5 °F -17.1 °F 78% 30.42 in - SW 6.9 mph - N/A   Clear
7:52 AM -12.5 °F -26.3 °F -17.7 °F 78% 30.41 in - South 5.8 mph - N/A   Clear
8:12 AM -12.3 °F -26.1 °F -17.1 °F 79% 30.42 in - SSW 5.8 mph - N/A   Clear
8:33 AM -11.0 °F -26.2 °F -16.2 °F 78% 30.40 in - South 6.9 mph - N/A   Clear
8:52 AM -11.2 °F -24.8 °F -16.1 °F 79% 30.40 in - South 5.8 mph - N/A   Clear
9:13 AM -9.4 °F -24.3 °F -14.8 °F 77% 30.40 in - South 6.9 mph - N/A   Clear
9:32 AM -7.6 °F -24.6 °F -13.0 °F 77% 30.40 in - South 9.2 mph - N/A   Clear
9:53 AM -5.1 °F -20.4 °F -11.2 °F 75% 30.38 in - SSE 8.1 mph - N/A   Clear
10:13 AM -3.5 °F -20.5 °F -9.8 °F 74% 30.38 in - SSE 10.4 mph - N/A   Clear
10:32 AM -2.7 °F -21.4 °F -9.4 °F 73% 30.36 in - SSE 12.7 mph - N/A   Clear
10:52 AM -1.3 °F -15.7 °F -8.0 °F 73% 30.38 in - SSE 8.1 mph - N/A   Clear
11:13 AM -0.2 °F -16.5 °F -7.4 °F 72% 30.35 in - South 10.4 mph - N/A   Clear
11:32 AM 1.2 °F -13.7 °F -6.2 °F 71% 30.33 in 10.0 mi SSE 9.2 mph - N/A   Clear
11:52 AM 2.3 °F -11.4 °F -5.6 °F 70% 30.33 in 10.0 mi SSE 8.1 mph - N/A   Clear
12:13 PM 2.8 °F -12.7 °F -4.7 °F 71% 30.35 in 10.0 mi South 10.4 mph - N/A   Clear
12:33 PM 3.2 °F -13.1 °F -4.2 °F 71% 30.34 in 10.0 mi South 11.5 mph - N/A   Clear
12:53 PM 3.9 °F -13.7 °F -3.6 °F 71% 30.32 in 10.0 mi South 13.8 mph - N/A   Clear
1:12 PM 4.1 °F -14.1 °F -2.9 °F 73% 30.32 in 10.0 mi South 15.0 mph - N/A   Scattered Clouds
1:33 PM 3.9 °F -15.6 °F -2.7 °F 74% 30.31 in 10.0 mi South 17.3 mph - N/A   Mostly Cloudy
1:53 PM 4.3 °F -14.5 °F -2.2 °F 75% 30.30 in 10.0 mi South 16.1 mph - N/A   Overcast
2:12 PM 3.7 °F -13.9 °F -2.9 °F 74% 30.30 in 10.0 mi South 13.8 mph - N/A   Overcast
2:33 PM 4.1 °F -12.0 °F -2.7 °F 73% 30.29 in 10.0 mi South 11.5 mph - N/A   Overcast
2:52 PM 4.5 °F -12.3 °F -2.4 °F 73% 30.28 in 10.0 mi SSE 12.7 mph 17.3 mph N/A   Overcast
3:13 PM 4.1 °F -11.1 °F -3.5 °F 71% 30.27 in 10.0 mi SSE 10.4 mph - N/A   Overcast
3:32 PM 4.1 °F -14.1 °F -5.1 °F 66% 30.27 in 10.0 mi SSE 15.0 mph 18.4 mph N/A   Overcast
3:52 PM 4.3 °F -10.9 °F -6.2 °F 62% 30.27 in 10.0 mi SSE 10.4 mph - N/A   Overcast
4:13 PM 4.8 °F -11.1 °F -5.1 °F 64% 30.26 in 10.0 mi SSE 11.5 mph - N/A   Overcast
4:32 PM 5.0 °F -10.0 °F -6.2 °F 60% 30.24 in 10.0 mi SE 10.4 mph - N/A   Overcast
4:53 PM 5.0 °F -10.8 °F -6.2 °F 60% 30.24 in 10.0 mi SSE 11.5 mph - N/A   Overcast
5:13 PM 5.2 °F -9.8 °F -4.5 °F 64% 30.23 in 5.0 mi SSE 10.4 mph 17.3 mph N/A Snow Light Snow
5:32 PM 4.8 °F -11.1 °F -2.6 °F 72% 30.23 in 2.5 mi SSE 11.5 mph 17.3 mph N/A Snow Light Snow
5:53 PM 4.8 °F -11.1 °F -0.4 °F 79% 30.23 in 1.5 mi SSE 11.5 mph - N/A Snow Light Snow
6:12 PM 4.8 °F -10.2 °F 0.5 °F 82% 30.23 in 1.2 mi SSE 10.4 mph - N/A Snow Snow
6:32 PM 4.8 °F -9.3 °F 1.2 °F 85% 30.23 in 2.0 mi SSE 9.2 mph - N/A Snow Light Snow
6:50 PM 5.0 °F -8.1 °F 1.2 °F 84% 30.22 in 1.0 mi SSE 8.1 mph - N/A Snow Light Snow
7:25 PM 5.0 °F -10.8 °F 1.4 °F 85% 30.21 in 1.2 mi SSE 11.5 mph 16.1 mph N/A   Overcast
7:45 PM 5.0 °F -10.8 °F 1.4 °F 85% 30.21 in 2.5 mi SSE 11.5 mph 17.3 mph N/A   Overcast
8:25 PM 5.0 °F -10.8 °F 1.4 °F 85% 30.20 in 1.2 mi South 11.5 mph - N/A   Overcast
9:05 PM 6.8 °F -10.7 °F 3.2 °F 85% 30.19 in 1.5 mi South 15.0 mph - N/A   Overcast
9:25 PM 6.8 °F -10.0 °F 3.2 °F 85% 30.19 in 2.0 mi South 13.8 mph 19.6 mph N/A   Overcast
9:45 PM 6.8 °F -10.0 °F 1.4 °F 79% 30.18 in 2.0 mi South 13.8 mph - N/A   Overcast
10:05 PM 6.8 °F -11.3 °F 1.4 °F 79% 30.17 in 2.0 mi South 16.1 mph - N/A   Overcast
10:25 PM 6.8 °F -10.0 °F 3.2 °F 85% 30.17 in 2.0 mi South 13.8 mph - N/A   Overcast
10:45 PM 6.8 °F -9.3 °F 3.2 °F 85% 30.16 in 4.0 mi South 12.7 mph - N/A   Overcast
11:25 PM 6.8 °F -9.3 °F 3.2 °F 85% 30.15 in 3.0 mi South 12.7 mph - N/A   Overcast
11:45 PM 6.8 °F -9.3 °F 3.2 °F 85% 30.14 in 5.0 mi South 12.7 mph - N/A   Overcast